Precipitable_Water
0.75 0.74 0.72 0.75 0.77 0.78 0.81 0.91 0.96 1.00 1.13 1.09 1.13 1.13 1.10 1.10 1.03 0.89 0.71 0.80 0.83 0.95 1.04 1.24 1.15 1.06 0.97 0.83 0.79 0.71 0.46 0.35 0.44 0.48 0.42 0.42 0.44 0.54 0.62 0.54 0.65 0.70 0.76 0.82 0.89
0.82 0.80 0.78 0.77 0.77 0.78 0.78 0.77 0.77 0.83 0.90 0.94 1.01 1.04 1.05 1.08 0.92 0.74 0.88 0.96 0.96 0.86 0.89 0.96 0.99 0.98 0.81 0.77 0.75 0.61 0.45 0.41 0.52 0.59 0.54 0.49 0.49 0.54 0.52 0.51 0.54 0.68 0.76 0.81 0.83
0.85 0.85 0.83 0.81 0.81 0.83 0.81 0.82 0.79 0.78 0.80 0.82 0.84 0.90 0.96 1.00 0.70 0.64 0.88 0.88 0.95 0.97 0.88 0.99 1.11 0.97 0.76 0.76 0.70 0.63 0.46 0.52 0.52 0.61 0.66 0.55 0.50 0.57 0.51 0.47 0.51 0.56 0.66 0.70 0.74
0.92 0.88 0.83 0.85 0.86 0.85 0.83 0.80 0.85 0.80 0.78 0.77 0.79 0.82 0.84 0.79 0.33 0.72 0.88 0.88 0.93 1.02 0.83 0.88 0.93 0.85 0.72 0.63 0.71 0.55 0.59 0.57 0.56 0.63 0.65 0.62 0.58 0.48 0.52 0.51 0.58 0.60 0.67 0.70 0.65
0.96 0.90 0.88 0.94 0.93 0.87 0.84 0.81 0.82 0.82 0.82 0.81 0.81 0.82 0.75 0.55 0.47 0.82 0.87 0.85 0.83 0.96 0.78 0.78 0.81 0.81 0.69 0.68 0.69 0.59 0.60 0.61 0.62 0.63 0.66 0.71 0.60 0.52 0.48 0.57 0.61 0.58 0.61 0.62 0.62
0.99 0.99 1.00 1.01 1.00 0.98 0.91 0.83 0.80 0.82 0.82 0.80 0.83 0.87 0.68 0.40 0.72 0.78 0.80 0.78 0.77 0.89 0.81 0.87 0.88 0.87 0.78 0.71 0.66 0.67 0.65 0.62 0.63 0.61 0.65 0.60 0.62 0.58 0.46 0.54 0.54 0.53 0.52 0.56 0.59
1.02 1.07 1.07 1.04 1.06 1.01 0.98 0.91 0.84 0.79 0.80 0.82 0.81 0.79 0.60 0.49 0.74 0.78 0.78 0.72 0.77 0.83 0.77 0.91 0.95 0.83 0.82 0.71 0.77 0.71 0.58 0.60 0.58 0.59 0.57 0.60 0.49 0.54 0.52 0.43 0.37 0.44 0.46 0.52 0.55
1.00 1.05 1.07 1.07 1.10 1.08 1.04 0.95 0.89 0.84 0.78 0.81 0.82 0.76 0.51 0.75 0.77 0.70 0.76 0.73 0.82 0.84 0.86 0.93 1.12 0.94 0.80 0.81 0.70 0.61 0.60 0.44 0.53 0.55 0.55 0.52 0.37 0.54 0.44 0.33 0.37 0.39 0.45 0.50 0.52
0.95 1.01 1.00 1.00 1.08 1.10 1.10 1.00 0.94 0.92 0.86 0.80 0.73 0.67 0.47 0.72 0.60 0.68 0.73 0.66 0.79 0.88 0.90 1.00 1.06 0.90 0.81 0.62 0.53 0.56 0.40 0.41 0.45 0.54 0.51 0.47 0.37 0.49 0.42 0.38 0.39 0.42 0.46 0.48 0.50
0.95 1.03 1.05 1.07 1.08 1.11 1.12 1.08 0.96 0.94 0.87 0.82 0.77 0.59 0.60 0.51 0.62 0.66 0.73 0.68 0.75 0.85 0.78 0.79 0.89 0.74 0.66 0.56 0.38 0.40 0.41 0.43 0.39 0.48 0.47 0.43 0.39 0.48 0.41 0.39 0.40 0.42 0.46 0.49 0.52
0.92 0.99 1.06 1.09 1.10 1.10 1.10 0.95 0.73 0.65 0.69 0.52 0.54 0.51 0.56 0.65 0.71 0.62 0.68 0.63 0.73 0.79 0.54 0.69 0.66 0.56 0.58 0.61 0.57 0.52 0.48 0.40 0.43 0.54 0.46 0.42 0.38 0.46 0.41 0.38 0.40 0.41 0.46 0.51 0.54
0.85 0.97 1.05 1.12 1.13 1.11 1.07 0.78 0.74 0.70 0.52 0.63 0.63 0.60 0.61 0.69 0.55 0.60 0.68 0.52 0.59 0.56 0.60 0.61 0.56 0.71 0.72 0.63 0.56 0.52 0.47 0.42 0.49 0.52 0.49 0.45 0.39 0.46 0.40 0.34 0.39 0.43 0.47 0.49 0.53
0.78 0.91 1.01 1.12 1.15 1.08 0.94 0.86 0.93 0.88 0.55 0.56 0.60 0.55 0.57 0.60 0.51 0.55 0.60 0.55 0.57 0.56 0.52 0.54 0.64 0.76 0.70 0.59 0.54 0.51 0.42 0.44 0.46 0.53 0.54 0.42 0.34 0.40 0.43 0.37 0.38 0.43 0.51 0.52 0.52
0.66 0.84 0.91 1.12 1.02 1.02 0.88 1.00 1.00 0.88 0.42 0.45 0.50 0.49 0.56 0.61 0.46 0.65 0.63 0.58 0.63 0.53 0.51 0.63 0.80 0.69 0.65 0.59 0.56 0.41 0.59 0.53 0.53 0.48 0.35 0.45 0.23 0.35 0.40 0.31 0.34 0.41 0.49 0.50 0.51
0.70 0.73 0.86 1.07 1.01 0.87 0.95 1.06 0.99 0.79 0.24 0.48 0.51 0.64 0.55 0.46 0.55 0.54 0.63 0.61 0.54 0.54 0.54 0.57 0.70 0.62 0.60 0.58 0.61 0.51 0.63 0.59 0.56 0.49 0.42 0.38 0.31 0.33 0.38 0.25 0.30 0.41 0.49 0.52 0.53
0.75 0.73 0.80 0.91 1.04 1.04 1.10 1.04 0.85 0.41 0.25 0.43 0.53 0.44 0.44 0.51 0.54 0.57 0.51 0.68 0.78 0.56 0.59 0.70 0.87 0.76 0.66 0.73 0.70 0.63 0.60 0.56 0.53 0.45 0.28 0.34 0.33 0.31 0.24 0.27 0.30 0.40 0.45 0.52 0.54
0.81 0.77 0.78 0.89 0.83 1.13 1.08 0.81 0.42 0.31 0.49 0.41 0.39 0.43 0.42 0.42 0.48 0.50 0.42 0.50 0.50 0.41 0.43 0.60 0.66 0.83 0.80 0.65 0.69 0.62 0.53 0.39 0.34 0.31 0.25 0.36 0.30 0.31 0.31 0.33 0.36 0.38 0.45 0.54 0.56
0.79 0.77 0.82 0.88 1.02 1.11 0.91 0.59 0.34 0.42 0.42 0.52 0.40 0.43 0.37 0.44 0.45 0.46 0.44 0.46 0.59 0.53 0.44 0.45 0.42 0.66 0.82 0.68 0.61 0.61 0.54 0.40 0.26 0.25 0.26 0.35 0.24 0.24 0.35 0.37 0.39 0.39 0.48 0.54 0.56
0.83 0.71 0.75 0.88 1.07 1.06 0.71 0.42 0.41 0.46 0.52 0.48 0.39 0.34 0.34 0.41 0.42 0.44 0.44 0.49 0.55 0.58 0.39 0.41 0.42 0.67 0.71 0.73 0.72 0.61 0.51 0.57 0.38 0.36 0.29 0.30 0.32 0.36 0.38 0.37 0.41 0.40 0.46 0.49 0.53
0.63 0.61 0.73 1.05 1.16 0.92 0.60 0.48 0.52 0.63 0.61 0.54 0.30 0.33 0.28 0.34 0.39 0.43 0.39 0.55 0.55 0.63 0.57 0.49 0.39 0.54 0.65 0.71 0.72 0.64 0.68 0.47 0.41 0.28 0.23 0.27 0.27 0.28 0.34 0.37 0.41 0.40 0.44 0.50 0.54
0.60 0.55 0.90 1.17 1.08 0.74 0.52 0.53 0.59 0.67 0.67 0.52 0.38 0.30 0.30 0.31 0.43 0.41 0.43 0.60 0.66 0.62 0.60 0.51 0.44 0.44 0.57 0.53 0.51 0.56 0.53 0.55 0.48 0.39 0.26 0.22 0.26 0.38 0.36 0.38 0.39 0.44 0.47 0.51 0.54
0.57 0.45 0.95 1.12 0.68 0.68 0.58 0.63 0.70 0.69 0.71 0.63 0.50 0.39 0.31 0.34 0.41 0.47 0.44 0.57 0.70 0.67 0.52 0.52 0.42 0.39 0.41 0.57 0.64 0.56 0.54 0.52 0.39 0.33 0.35 0.32 0.30 0.42 0.38 0.38 0.41 0.46 0.51 0.55 0.59
0.51 0.62 0.98 0.99 0.57 0.59 0.68 0.66 0.69 0.68 0.65 0.64 0.57 0.47 0.46 0.41 0.44 0.48 0.51 0.66 0.74 0.66 0.55 0.54 0.43 0.35 0.40 0.46 0.50 0.47 0.52 0.53 0.49 0.45 0.33 0.29 0.30 0.44 0.43 0.43 0.45 0.46 0.51 0.55 0.59
0.54 0.51 0.74 0.82 0.83 0.70 0.65 0.65 0.64 0.78 0.72 0.73 0.64 0.58 0.48 0.45 0.57 0.47 0.55 0.68 0.71 0.70 0.67 0.62 0.49 0.40 0.33 0.38 0.46 0.41 0.44 0.50 0.48 0.39 0.35 0.34 0.37 0.39 0.36 0.39 0.46 0.50 0.55 0.58 0.61
0.48 0.51 0.72 0.58 0.68 0.73 0.73 0.70 0.63 0.63 0.74 0.78 0.62 0.58 0.50 0.44 0.51 0.48 0.60 0.65 0.70 0.71 0.66 0.61 0.46 0.46 0.46 0.47 0.45 0.44 0.42 0.42 0.41 0.42 0.37 0.41 0.41 0.32 0.37 0.42 0.48 0.54 0.59 0.60 0.60
0.38 0.45 0.61 0.60 0.70 0.72 0.73 0.67 0.65 0.69 0.70 0.62 0.58 0.57 0.57 0.46 0.50 0.49 0.52 0.62 0.59 0.66 0.64 0.62 0.47 0.49 0.44 0.49 0.47 0.44 0.47 0.46 0.45 0.46 0.45 0.40 0.30 0.35 0.42 0.47 0.50 0.54 0.56 0.55 0.53
0.51 0.53 0.58 0.59 0.66 0.69 0.68 0.69 0.71 0.76 0.75 0.72 0.65 0.59 0.61 0.60 0.66 0.70 0.73 0.74 0.69 0.64 0.60 0.59 0.50 0.46 0.39 0.47 0.45 0.36 0.41 0.41 0.44 0.48 0.41 0.27 0.28 0.40 0.43 0.49 0.55 0.56 0.54 0.51 0.57
Wind_Speed
23 24 25 25 26 25 25 25 27 28 28 29 29 30 31 32 33 33 34 35 35 34 35 34 33 31 27 24 22 20 17 16 15 13 12 12 12 12 12 12 11 11 11 10 9
24 24 24 24 23 23 24 25 27 28 29 30 31 32 32 33 35 38 36 37 37 37 35 35 34 32 29 26 24 22 19 19 17 15 13 13 13 13 12 12 13 13 12 11 11
24 23 20 19 19 21 23 25 26 27 28 29 31 32 33 33 35 38 40 40 40 39 38 36 35 34 32 27 26 23 21 20 18 17 15 13 14 13 13 14 14 16 15 14 13
21 18 17 18 20 21 22 24 25 26 26 27 29 30 32 33 34 32 32 36 41 42 40 37 37 36 33 30 26 23 23 21 19 17 15 15 14 15 16 18 16 18 18 17 16
20 18 18 19 20 21 21 22 24 25 26 26 28 29 31 34 38 35 31 30 35 43 43 40 38 36 34 31 27 26 23 22 21 19 18 16 17 17 19 20 20 18 18 17 16
19 18 19 20 20 21 22 23 24 24 25 25 26 27 28 33 32 39 41 34 32 42 44 42 36 35 32 30 31 25 26 25 22 21 18 18 17 13 19 18 19 18 18 18 18
20 19 20 20 20 21 23 23 23 23 23 24 25 26 28 31 27 26 34 37 37 40 45 43 37 35 32 29 28 26 23 22 21 19 18 17 18 17 19 16 17 17 16 15 14
20 19 20 20 21 22 22 22 21 21 21 22 22 23 27 27 31 30 26 32 36 39 44 42 38 33 30 29 23 27 24 24 19 19 17 14 16 14 12 11 11 13 13 12 12
20 20 21 22 22 22 21 20 20 19 19 19 19 21 24 22 27 28 30 30 33 36 42 41 36 34 32 29 26 25 23 21 20 20 18 17 15 12 12 11 12 12 10 10 10
21 20 22 23 23 22 20 18 18 17 16 16 17 17 20 17 21 25 27 32 31 34 39 40 35 34 35 32 31 25 21 19 18 16 16 16 19 17 14 14 15 13 12 10 9
21 21 22 24 23 20 17 14 14 16 17 17 16 18 14 15 19 22 27 32 32 33 41 43 35 38 39 33 25 23 20 22 18 18 16 16 16 17 14 14 15 14 13 11 10
21 21 22 22 21 18 17 17 17 14 15 19 17 19 17 13 16 22 29 32 33 33 40 37 38 33 32 30 26 22 20 19 17 16 15 16 18 18 15 14 15 15 14 13 11
21 20 21 21 20 18 18 17 15 15 15 15 18 16 15 21 18 22 31 32 32 33 43 38 34 33 31 31 29 23 21 18 17 15 15 15 15 13 11 12 12 14 14 13 12
21 20 20 20 17 16 16 15 13 12 13 12 12 13 18 14 19 25 32 34 27 36 40 32 24 35 32 32 29 25 20 18 16 13 13 10 13 14 14 13 13 14 15 14 12
20 19 18 17 15 15 13 12 10 8 11 5 7 8 16 19 15 25 34 35 30 32 36 28 21 38 33 31 27 21 21 19 17 15 12 12 11 12 11 13 15 15 15 14 12
19 18 17 16 15 14 10 7 7 8 9 6 5 13 19 19 16 26 33 32 24 29 36 21 20 29 27 25 25 21 18 15 13 13 13 14 13 11 9 8 10 13 15 15 13
18 17 16 15 15 12 7 5 6 8 5 4 5 15 20 19 20 27 35 36 21 30 36 24 25 18 24 24 21 22 18 12 14 14 13 10 11 15 11 11 9 13 16 15 14
18 17 16 16 12 8 5 7 8 5 5 2 6 18 18 20 20 28 33 32 25 25 33 25 22 24 23 24 23 21 21 15 14 13 11 10 12 10 8 10 12 14 16 15 15
17 15 16 15 10 6 5 7 7 6 5 6 8 20 18 22 21 28 31 29 26 29 28 28 23 24 22 21 23 21 20 17 11 10 9 10 10 12 9 8 9 12 17 17 15
15 13 12 9 7 4 6 9 7 5 3 8 9 17 20 25 24 27 31 28 27 28 24 23 20 24 22 20 19 20 20 18 14 12 11 9 9 10 9 8 8 11 15 16 15
12 10 9 5 6 4 7 7 7 7 6 8 10 16 20 25 24 27 30 22 27 28 25 22 20 22 24 23 22 19 18 18 16 13 11 9 9 9 9 10 11 13 15 16 15
10 8 7 7 5 6 6 5 4 4 9 6 11 15 21 25 22 24 27 20 28 26 23 23 21 20 23 19 23 21 21 21 16 14 14 12 13 10 12 12 10 11 14 14 14
8 6 5 8 5 6 7 8 6 8 8 6 9 17 22 22 19 23 23 24 26 27 22 22 17 18 19 21 20 23 23 22 19 15 16 13 13 9 8 7 8 10 12 13 14
7 6 4 9 7 6 5 2 5 6 5 7 10 17 21 21 17 22 20 20 24 25 22 19 15 19 21 17 18 19 21 21 22 19 17 19 16 15 13 11 11 12 13 14 15
9 9 7 6 8 8 5 4 9 5 9 7 10 21 22 19 18 20 19 17 19 24 22 18 15 14 15 17 20 20 21 25 26 24 22 19 21 19 17 14 13 13 14 15 16
9 10 8 8 7 6 6 3 8 7 7 10 13 22 19 19 18 18 22 20 20 20 21 17 16 14 11 14 17 19 20 24 25 22 23 19 21 18 16 15 14 14 14 16 17
10 12 9 7 6 6 5 2 6 9 7 10 16 17 16 15 16 14 18 19 19 17 17 16 14 13 13 12 13 15 20 20 20 22 22 22 20 18 16 15 14 14 14 14 16
Wind_Direction
298 294 288 284 280 274 271 269 269 267 267 265 260 257 255 254 252 249 245 242 238 235 234 233 228 227 230 230 229 228 229 228 233 230 241 242 249 245 251 249 247 235 235 248 268
303 297 291 287 282 274 272 272 271 270 268 264 261 259 257 254 253 250 247 243 238 233 231 228 225 222 226 226 226 225 226 226 231 235 243 250 248 252 251 252 243 239 241 253 263
307 301 293 288 284 279 277 275 274 272 270 266 263 261 256 254 256 252 247 242 236 231 226 225 224 220 222 223 223 224 225 229 233 239 247 252 253 246 249 250 241 246 255 263 262
311 303 297 292 290 286 282 279 277 275 271 268 265 261 257 252 251 247 244 239 233 226 222 220 219 217 218 220 222 225 228 230 235 239 244 250 255 250 245 250 251 251 254 259 267
309 300 298 298 292 288 286 283 280 277 273 271 267 260 256 253 251 243 241 238 229 220 218 216 216 215 216 218 220 224 227 230 235 241 245 250 253 254 255 256 256 256 253 257 262
310 303 301 298 295 290 289 285 283 279 274 272 267 260 258 254 253 242 240 236 226 217 214 212 213 215 216 218 219 222 226 234 237 243 245 248 255 250 260 258 254 252 255 259 262
307 303 304 302 297 293 290 286 284 281 275 271 268 261 259 253 252 240 235 228 223 215 211 210 213 213 211 215 219 220 225 232 231 237 243 248 252 249 267 260 254 249 252 259 258
306 304 305 304 300 297 294 288 285 280 276 274 268 262 265 257 244 237 232 221 216 212 208 207 209 212 212 212 213 216 222 229 230 231 239 234 248 262 273 246 249 245 248 252 254
304 302 306 304 302 299 293 288 286 279 276 274 266 265 275 253 236 229 224 212 208 205 202 202 207 209 207 207 209 215 217 222 235 233 232 228 245 250 257 256 247 246 246 248 248
304 301 306 308 302 297 294 285 285 277 276 275 269 267 272 240 230 217 214 204 201 198 195 197 202 204 205 205 208 207 211 214 220 222 224 234 248 263 262 249 245 241 240 240 241
305 301 306 309 304 293 289 284 286 282 271 268 271 258 267 235 221 213 204 196 196 194 193 196 200 202 201 204 206 204 210 217 224 229 232 237 248 262 259 248 247 238 233 234 237
303 305 307 307 308 292 283 276 275 288 287 265 267 252 244 223 212 207 194 191 193 191 190 194 204 199 200 200 202 205 208 215 227 227 232 248 258 257 254 248 239 231 228 230 234
300 306 311 311 305 292 285 270 274 282 294 278 252 251 229 215 211 201 191 189 193 188 191 195 199 197 197 199 201 207 209 212 220 233 238 253 252 249 248 241 240 233 227 229 229
299 302 308 314 307 301 288 270 270 287 291 283 246 244 211 200 207 197 189 184 186 188 189 202 199 193 195 199 200 209 209 211 220 232 233 245 248 248 256 248 237 229 224 221 223
299 300 302 309 312 308 301 263 259 277 298 278 241 227 193 191 185 185 185 186 185 183 185 191 198 191 194 197 198 206 205 212 220 224 235 237 241 240 257 252 234 225 220 217 218
298 299 300 306 304 307 300 262 248 283 291 267 230 191 179 185 181 175 179 183 184 183 188 193 192 191 198 195 195 196 199 209 218 224 233 231 224 242 237 244 226 220 216 215 216
297 295 293 300 309 303 290 237 259 283 309 282 216 176 176 177 182 175 178 183 181 178 187 194 189 183 190 184 196 199 195 207 215 218 222 219 224 242 248 247 231 217 214 215 216
297 293 292 293 297 296 252 257 269 308 275 303 161 168 175 171 180 176 176 184 189 188 184 190 185 183 181 188 190 198 196 206 209 212 220 217 227 233 235 249 248 231 216 215 218
298 295 292 288 278 263 265 263 285 291 262 193 149 173 178 178 172 174 180 183 187 192 185 191 196 195 190 190 192 201 205 210 204 215 219 225 244 254 245 259 249 223 212 216 219
299 295 295 287 243 235 285 281 279 303 212 174 172 178 176 176 173 176 179 186 187 193 193 194 194 197 195 198 202 203 203 208 215 215 224 234 242 235 256 269 248 229 218 219 223
293 288 296 258 200 256 299 281 286 283 171 172 168 173 177 174 174 176 180 181 188 191 193 190 193 200 197 206 201 204 210 213 212 217 217 231 240 229 255 272 254 232 221 220 224
287 277 289 202 219 275 303 304 283 209 178 171 166 170 171 171 177 179 182 188 185 185 187 194 193 196 203 210 213 211 208 209 213 222 230 233 244 252 271 267 252 229 220 224 230
274 261 252 203 259 276 297 290 214 172 179 163 156 164 167 169 176 179 181 191 184 190 188 188 197 194 203 215 214 216 215 219 223 232 230 229 241 249 264 256 245 229 228 230 236
256 240 237 231 265 287 279 271 176 187 185 188 180 171 170 175 182 181 180 187 191 194 192 189 197 202 208 210 206 214 219 223 222 230 234 239 245 250 255 256 257 248 244 240 245
244 239 232 234 257 255 252 247 217 201 207 187 183 181 178 179 175 179 182 180 188 188 191 197 200 204 217 220 219 221 222 221 226 231 233 242 243 249 250 251 250 249 246 248 253
239 230 237 250 253 234 209 251 199 198 185 176 160 173 176 172 177 184 186 189 183 188 192 206 207 205 215 218 220 227 227 225 228 233 243 241 249 246 247 250 250 249 252 257 262
238 233 229 234 226 208 215 237 201 181 160 164 158 163 166 178 189 178 177 183 181 183 186 193 195 205 218 217 215 238 225 223 230 233 236 237 244 239 243 242 245 253 258 262 265